TimeEST,TemperatureF,Dew PointF,Humidity,Sea Level PressureIn,VisibilityMPH,Wind Direction,Wind SpeedMPH,Gust SpeedMPH,PrecipitationIn,Events,Conditions,WindDirDegrees,DateUTC
12:18 AM,37.0,36.0,96,30.14,10.0,North,9.2,-,N/A,,Mostly Cloudy,10,2014-02-09 05:18:00
12:33 AM,37.0,36.0,96,30.14,10.0,North,9.2,-,N/A,,Scattered Clouds,10,2014-02-09 05:33:00
12:51 AM,37.0,36.0,96,30.14,10.0,North,9.2,-,N/A,,Partly Cloudy,10,2014-02-09 05:51:00
1:51 AM,37.9,36.0,93,30.15,10.0,North,5.8,-,N/A,,Partly Cloudy,350,2014-02-09 06:51:00
2:51 AM,37.0,36.0,96,30.14,10.0,NNE,6.9,17.3,N/A,,Partly Cloudy,20,2014-02-09 07:51:00
3:51 AM,37.0,35.1,93,30.14,10.0,NNE,9.2,-,N/A,,Clear,30,2014-02-09 08:51:00
4:51 AM,37.9,35.1,89,30.15,10.0,NE,6.9,-,N/A,,Clear,40,2014-02-09 09:51:00
5:51 AM,37.9,35.1,89,30.14,10.0,NE,9.2,17.3,N/A,,Clear,40,2014-02-09 10:51:00
6:51 AM,37.9,36.0,93,30.15,10.0,NE,6.9,-,N/A,,Clear,40,2014-02-09 11:51:00
7:51 AM,39.9,36.0,86,30.16,10.0,NE,8.1,-,N/A,,Clear,40,2014-02-09 12:51:00
8:51 AM,43.0,36.0,76,30.17,10.0,Variable,6.9,-,N/A,,Clear,0,2014-02-09 13:51:00
9:51 AM,43.0,36.0,76,30.20,10.0,NNE,6.9,-,N/A,,Clear,20,2014-02-09 14:51:00
10:51 AM,43.0,36.0,76,30.20,10.0,Variable,5.8,-,N/A,,Clear,0,2014-02-09 15:51:00
11:51 AM,46.0,37.0,71,30.18,10.0,Variable,5.8,-,N/A,,Clear,0,2014-02-09 16:51:00
12:51 PM,46.9,37.0,68,30.14,10.0,Variable,4.6,-,N/A,,Clear,0,2014-02-09 17:51:00
1:51 PM,48.0,37.9,68,30.11,10.0,Variable,3.5,-,N/A,,Clear,0,2014-02-09 18:51:00
2:51 PM,50.0,37.0,61,30.09,10.0,SSE,4.6,-,N/A,,Clear,150,2014-02-09 19:51:00
3:51 PM,48.9,39.0,69,30.09,10.0,North,3.5,-,N/A,,Clear,360,2014-02-09 20:51:00
4:51 PM,46.9,39.9,77,30.07,10.0,Calm,Calm,-,N/A,,Clear,0,2014-02-09 21:51:00
5:51 PM,43.0,39.0,86,30.04,9.0,East,5.8,-,N/A,,Clear,100,2014-02-09 22:51:00
6:51 PM,39.9,36.0,86,30.03,10.0,East,4.6,-,N/A,,Clear,90,2014-02-09 23:51:00
7:51 PM,39.0,37.0,93,30.02,10.0,East,3.5,-,N/A,,Clear,100,2014-02-10 00:51:00
8:51 PM,39.0,37.0,93,30.05,7.0,Calm,Calm,-,N/A,,Clear,0,2014-02-10 01:51:00
9:51 PM,43.0,41.0,93,30.09,10.0,North,4.6,-,N/A,,Scattered Clouds,350,2014-02-10 02:51:00
10:51 PM,44.1,42.1,93,30.08,10.0,North,4.6,-,N/A,,Overcast,350,2014-02-10 03:51:00
11:51 PM,43.0,41.0,93,30.06,7.0,WSW,5.8,-,N/A,,Clear,250,2014-02-10 04:51:00